DateTimeUTC,F1_A11,F1_S11,BsB_S11,BsG_S11,BsR_S11,BbsB_S11,BbsG_S11,BbsR_S11,BaB_A11,BaG_A11,BaR_A11,Tu_S11,T_S11,Uu_S11,U_S11,P_S11,T1_A11
2021-03-14T18:00:00Z,00000200,21000000,,,,,,,0000.26,0000.27,0000.26,16.8,24.2,,00.0,0643.0,30.9
2021-03-14T18:01:00Z,00000200,21000000,,,,,,,0000.26,0000.24,0000.01,16.8,24.2,,00.0,0643.0,30.9
2021-03-14T18:02:00Z,00000200,21000000,,,,,,,0000.38,0000.45,0000.41,16.8,24.2,,00.0,0643.0,30.9
2021-03-14T18:03:00Z,00000200,61010000,,,,,,,0000.05,-000.01,0000.13,16.8,24.2,,00.0,0643.0,30.9
2021-03-14T18:04:00Z,00000200,41000000,0000.60,0000.34,0000.25,-000.26,0000.10,0000.46,0000.05,0000.35,-000.12,16.9,24.0,,00.0,0643.9,30.9
2021-03-14T18:05:00Z,00000200,01000000,0000.87,0000.28,0000.36,-000.07,0000.16,0000.21,0000.20,-000.46,0000.03,16.9,24.0,,00.0,0644.0,30.9
2021-03-14T18:06:00Z,00000200,01000000,0000.48,0000.18,0000.04,0000.24,-000.08,0000.02,-000.26,-000.12,0000.09,16.8,23.9,,00.0,0644.0,30.9
2021-03-14T18:07:00Z,00000200,01000000,0000.83,0000.12,0000.16,0000.02,0000.01,0000.07,0000.26,0000.45,0000.06,16.8,23.9,,00.0,0644.0,30.9
2021-03-14T18:08:00Z,00000200,01000000,0000.27,0000.30,0000.08,0000.01,0000.18,0000.02,0000.01,-000.14,-000.06,16.8,23.9,,00.0,0644.0,30.8
2021-03-14T18:09:00Z,00000200,01000000,0000.55,0000.28,0000.23,-000.05,-000.05,0000.17,0000.04,0000.23,0000.12,16.7,23.8,,00.0,0644.0,30.8
2021-03-14T18:10:00Z,00000200,01000000,0000.58,0000.43,-000.01,-000.43,0000.19,0000.43,0000.11,0000.24,0000.40,16.7,23.8,,00.0,0644.0,30.8
2021-03-14T18:11:00Z,00000200,01000000,0000.47,0000.16,0000.13,-000.42,0000.05,0000.08,0000.46,0000.02,-000.14,16.7,23.8,,00.0,0644.1,30.8
2021-03-14T18:12:00Z,00000200,01000000,0000.23,-000.09,0000.18,-000.03,0000.01,-000.00,0000.12,0000.26,0000.11,16.7,23.7,,00.0,0644.0,30.8
2021-03-14T18:13:00Z,00000200,01000000,0000.80,0000.03,0000.09,-000.33,-000.29,0000.11,0000.02,-000.07,-000.05,16.7,23.7,,00.0,0644.1,30.8
2021-03-14T18:14:00Z,00000200,01000000,0000.70,0000.19,0000.06,-000.29,0000.14,0000.06,0000.45,0000.49,0000.55,16.8,23.8,,00.0,0644.1,30.8
2021-03-14T18:15:00Z,00000200,01000000,0000.27,0000.15,0000.11,0000.02,0000.06,0000.09,0000.39,0000.18,-000.19,16.9,23.8,,00.0,0644.1,30.9
2021-03-14T18:16:00Z,00000200,01000000,0000.15,-000.04,0000.08,0000.04,0000.24,0000.07,0000.01,0000.07,-000.05,16.9,23.8,,00.0,0644.1,30.9
2021-03-14T18:17:00Z,00000200,01000000,0000.83,0000.13,0000.30,0000.03,0000.04,0000.13,-000.10,0000.19,0000.83,17.0,23.8,,00.0,0644.1,30.9
2021-03-14T18:18:00Z,00000200,01000000,0000.89,0000.04,-000.02,-000.03,0000.08,-000.02,0000.02,-000.28,-000.21,17.0,23.9,,00.0,0644.2,30.9
2021-03-14T18:19:00Z,00000200,01000000,0000.91,0000.48,0000.20,-000.13,-000.01,0000.18,0000.38,0000.51,0000.11,17.1,23.9,,00.0,0644.2,30.9
2021-03-14T18:20:00Z,00000200,01000000,0000.94,0000.43,-000.14,-000.36,0000.19,0000.02,0000.27,0000.45,0000.23,17.2,24.0,,00.0,0644.2,30.9
2021-03-14T18:21:00Z,00000200,01000000,0000.53,0000.11,0000.11,0000.36,0000.00,0000.15,-000.37,-000.37,-000.16,17.2,24.0,,00.0,0644.2,30.9
2021-03-14T18:22:00Z,00000200,01000000,0000.51,0000.30,0000.01,0000.07,0000.13,0000.35,0000.33,0000.37,0000.29,17.3,24.0,,00.0,0644.2,30.9
2021-03-14T18:23:00Z,00000200,01000000,0000.27,0000.29,0000.03,-000.49,0000.11,0000.15,0000.02,-000.38,-000.21,17.3,24.0,,00.0,0644.2,30.9
2021-03-14T18:24:00Z,00000200,01000000,0000.37,0000.05,0000.03,-000.39,-000.09,0000.20,-000.22,0000.41,0000.23,17.4,24.0,,00.0,0644.2,30.9
2021-03-14T18:25:00Z,00000200,01000000,0000.25,0000.11,0000.03,0000.06,-000.00,0000.16,0000.02,-000.11,-000.08,17.3,24.0,,00.0,0644.2,30.9
2021-03-14T18:26:00Z,00000200,01000000,-000.21,0000.18,0000.11,-000.15,0000.17,-000.09,0000.47,0000.22,0000.18,17.3,24.0,,00.0,0644.2,30.9
2021-03-14T18:27:00Z,00000200,01000000,0000.26,-000.03,0000.18,-000.09,0000.08,0000.10,-000.20,-000.24,-000.19,17.3,24.0,,00.0,0644.2,30.9
2021-03-14T18:28:00Z,00000200,01000000,0000.72,0000.22,0000.23,0000.04,-000.27,-000.01,0000.26,0000.13,0000.03,17.3,24.0,,00.0,0644.2,30.9
2021-03-14T18:29:00Z,00000200,01000000,0000.53,0000.27,0000.13,0000.13,-000.14,0000.04,0000.02,0000.26,-000.05,17.3,24.0,,00.0,0644.2,30.9
2021-03-14T18:30:00Z,00000200,01000000,0000.17,0000.06,0000.04,0000.15,-000.02,-000.30,-000.18,-000.25,0000.30,17.3,24.0,,00.0,0644.2,30.9
2021-03-14T18:31:00Z,00000200,01000000,0000.49,-000.11,0000.27,-000.11,0000.16,-000.09,0000.24,0000.07,-000.04,17.3,24.0,,00.0,0644.2,30.9
2021-03-14T18:32:00Z,00000200,01000000,0000.22,0000.05,0000.00,-000.21,0000.22,-000.05,0000.15,0000.14,0000.13,17.3,24.0,,00.0,0644.2,30.9
2021-03-14T18:33:00Z,00000200,01000000,0000.68,0000.10,0000.15,0000.51,0000.07,-000.01,0000.18,0000.32,-000.04,17.2,24.0,,00.0,0644.2,30.9
2021-03-14T18:34:00Z,00000200,01000000,0000.19,0000.22,-000.00,0000.48,0000.18,0000.17,-000.01,-000.17,0000.08,17.2,24.0,,00.0,0644.2,30.9
2021-03-14T18:35:00Z,00000200,01000000,0000.23,0000.32,-000.16,0000.16,-000.23,-000.03,0000.42,0000.39,0000.15,17.1,24.0,,00.0,0644.2,30.9
2021-03-14T18:36:00Z,00000200,01000000,0000.62,0000.06,-000.02,-000.32,0000.10,-000.05,-000.11,-000.07,-000.03,17.1,24.0,,00.0,0644.2,30.9
2021-03-14T18:37:00Z,00000200,01000000,0000.97,0000.22,0000.09,0000.40,-000.15,0000.10,0000.08,-000.01,0000.03,17.0,23.9,,00.0,0644.2,30.9
2021-03-14T18:38:00Z,00000200,01000000,0000.64,0000.06,0000.40,-000.23,-000.06,0000.17,-000.08,0000.12,0000.16,17.0,23.9,,00.0,0644.2,30.9
2021-03-14T18:39:00Z,00000200,01000000,0000.61,0000.43,0000.42,0000.14,-000.03,0000.07,0000.05,-000.23,-000.39,17.0,23.9,,00.0,0644.2,30.9
2021-03-14T18:40:00Z,00000200,01000000,0000.56,-000.00,0000.23,0000.35,-000.18,0000.09,-000.28,-000.35,0000.12,16.9,23.9,,00.0,0644.2,30.9
2021-03-14T18:41:00Z,00000200,01000000,0000.43,0000.10,0000.02,-000.20,-000.21,-000.00,-000.04,-000.07,0000.15,16.9,23.8,,00.0,0644.2,30.8
2021-03-14T18:42:00Z,00000200,01000000,0000.67,0000.30,0000.34,0000.10,0000.12,0000.20,0000.02,0000.23,-000.09,16.9,23.8,,00.0,0644.2,30.8
2021-03-14T18:43:00Z,00000200,01000000,0000.57,0000.48,0000.20,0000.08,0000.06,-000.10,0000.14,-000.17,-000.16,16.9,23.8,,00.0,0644.2,30.8
2021-03-14T18:44:00Z,00000200,01000000,-000.22,0000.35,0000.15,-000.38,0000.20,0000.19,-000.08,0000.09,0000.17,17.0,23.8,,00.0,0644.2,30.9
2021-03-14T18:45:00Z,00000200,01000000,0000.26,0000.18,0000.04,-000.01,0000.31,0000.24,0000.09,0000.18,0000.09,17.0,23.9,,00.0,0644.2,30.9
2021-03-14T18:46:00Z,00000200,01000000,0000.08,0000.10,0000.05,0000.49,-000.05,0000.22,-000.22,-000.02,-000.15,17.1,23.9,,00.0,0644.3,30.9
2021-03-14T18:47:00Z,00000200,01000000,0000.05,0000.09,0000.19,0000.06,-000.02,0000.15,-000.16,-000.23,-000.06,17.2,24.0,,00.0,0644.3,30.9
2021-03-14T18:48:00Z,00000200,01000000,0001.45,0000.17,-000.07,-000.10,0000.31,0000.10,0000.08,0000.22,-000.26,17.2,23.9,,00.0,0644.3,30.9
2021-03-14T18:49:00Z,00000200,01000000,0000.57,0000.17,-000.08,-000.31,0000.05,0000.11,-000.43,-000.61,-000.22,17.2,24.0,,00.0,0644.3,30.9
2021-03-14T18:50:00Z,00000200,01000000,-000.02,0000.18,-000.01,-000.12,0000.34,0000.03,-000.23,-000.27,-000.27,17.1,23.9,,00.0,0644.3,30.9
2021-03-14T18:51:00Z,00000200,01000000,0000.38,0000.19,0000.12,-000.03,0000.13,0000.08,-000.02,0000.08,0000.29,17.1,23.9,,00.0,0644.3,30.9
2021-03-14T18:52:00Z,00000200,01000000,0000.82,0000.06,0000.17,-000.02,-000.01,0000.20,-000.09,-000.20,0000.19,17.0,23.9,,00.0,0644.3,30.9
2021-03-14T18:53:00Z,00000200,01000000,0000.63,-000.01,0000.12,0000.50,-000.07,0000.20,-000.18,0000.04,-000.37,17.0,23.9,,00.0,0644.3,30.9
2021-03-14T18:54:00Z,00000200,01000000,0000.50,0000.15,-000.05,-000.07,0000.09,-000.06,-000.35,-000.16,-000.11,17.0,23.9,,00.0,0644.3,30.9
2021-03-14T18:55:00Z,00000200,01000000,0000.87,0000.28,0000.22,0000.06,0000.06,0000.35,0000.12,-000.05,0000.09,16.9,23.8,,00.0,0644.3,30.9
2021-03-14T18:56:00Z,00000200,01000000,0000.50,0000.41,-000.04,0000.25,0000.00,-000.01,0000.14,0000.05,0000.00,16.9,23.8,,00.0,0644.3,30.8
2021-03-14T18:57:00Z,00000200,41000000,,,,,,,0000.65,0000.71,0000.44,16.9,23.8,,00.0,0644.2,30.8
2021-03-14T18:58:00Z,00000200,61000000,,,,,,,-000.33,-000.54,-000.28,16.6,24.0,,00.0,0643.3,30.9
2021-03-14T18:59:00Z,00000200,21000000,,,,,,,-000.39,-000.36,-000.11,16.6,24.1,,00.0,0643.3,30.9
